FW2240 Weather Reports


time (UTC)temp
C
wind
direction
speed
KPH
gust
KPH
rain 1hr
cm
rain 24hr
cm
rain mn
cm
humidity
%
barometer
mb
20260506103047 10 120 0.0 3.2 0.00 0.00 0.00 90 1010.5
20260506102533 11 322 0.0 16.1 0.00 0.00 0.00 90 1010.5
20260506101544 11 106 0.0 11.3 0.00 0.00 0.00 90 1010.4
20260506100551 11 88 0.0 9.7 0.00 0.00 0.00 90 1010.3
20260506095552 11 124 9.7 27.4 0.00 0.00 0.00 91 1010.2
20260506090028 11 91 8.0 19.3 0.00 0.00 0.00 91 1010.1
20260506085524 11 88 6.4 16.1 0.00 0.00 0.00 91 1010.0
20260506085021 11 136 8.0 27.4 0.00 0.00 0.00 91 1010.0
20260506084517 11 121 11.3 27.4 0.00 0.00 0.00 90 1010.0
20260506083557 11 157 12.9 30.6 0.00 0.00 0.00 91 1010.0
20260506083039 11 165 9.7 27.4 0.00 0.00 0.00 90 1010.1
20260506082232 11 143 11.3 30.6 0.00 0.00 0.00 91 1010.2
20260506081543 11 151 12.9 24.1 0.00 0.00 0.00 91 1010.2
20260506081032 11 107 9.7 24.1 0.00 0.00 0.00 91 1010.1
20260506080132 11 77 11.3 27.4 0.00 0.00 0.00 91 1010.0
20260506073525 11 139 9.7 24.1 0.00 0.00 0.00 91 1009.6
20260506072642 11 148 6.4 20.9 0.00 0.00 0.00 90 1009.6
20260506071513 11 154 6.4 17.7 0.00 0.00 0.00 91 1009.6
20260506070551 11 137 8.0 16.1 0.00 0.00 0.00 91 1009.5
20260506061933 13 115 8.0 20.9 0.00 0.00 0.00 82 1008.3
20260506061329 16 111 8.0 20.9 0.00 0.00 0.00 76 1008.8
20260506060705 16 48 11.3 22.5 0.00 0.00 0.00 77 1009.2
20260506043351 15 56 8.0 17.7 0.00 0.00 0.00 84 1009.3
20260506041606 12 141 8.0 17.7 0.00 0.00 0.00 89 1009.7
20260506032822 12 142 8.0 16.1 0.00 0.00 0.00 91 1008.9
20260505124602 11 110 0.0 9.7 0.00 0.00 0.00 90 1007.3
20260505123601 11 89 0.0 1.6 0.00 0.00 0.00 89 1007.2
20260505122917 12 143 0.0 4.8 0.00 0.00 0.00 89 1007.0
20260505122237 12 94 0.0 4.8 0.00 0.00 0.00 88 1007.0
20260505121045 12 94 0.0 11.3 0.00 0.00 0.00 87 1006.7
20260505115604 12 91 0.0 3.2 0.00 0.00 0.00 87 1006.9
20260505114559 12 291 0.0 3.2 0.00 0.00 0.00 86 1006.6
20260505114049 12 87 0.0 3.2 0.00 0.00 0.00 85 1006.6
20260505113542 12 101 0.0 3.2 0.00 0.00 0.00 85 1006.6
20260505112552 12 120 0.0 1.6 0.00 0.00 0.00 84 1006.4
20260505111554 12 88 0.0 3.2 0.00 0.00 0.00 84 1006.3
20260505111040 12 96 0.0 3.2 0.00 0.00 0.00 84 1006.4
20260505110539 12 145 0.0 6.4 0.00 0.00 0.00 84 1006.4